Harlingen, TX

6:50 AM CST on December 09, 2016 (GMT -0600)
Valley International

Weather History for KHRL - April, 2014

Change the Weather History Date:

Thursday, April 3, 2014

  Actual Average Record
Temperature  
Mean Temperature 82 °F 73 °F  
Max Temperature 91 °F 84 °F 99 °F (1974)
Min Temperature 73 °F 62 °F 40 °F (1881)
Degree Days  
Heating Degree Days 0 1  
Month to date heating degree days 0 3  
Since 1 July heating degree days 918 617  
Cooling Degree Days 17 8  
Month to date cooling degree days 44 24  
Year to date cooling degree days 267 319  
Growing Degree Days 32 (Base 50)    
Moisture  
Dew Point 71 °F    
Average Humidity 73    
Maximum Humidity 87    
Minimum Humidity 59    
Precipitation  
Precipitation 0.00 in 0.06 in 0.53 in (1959)
Month to date precipitation 0.00 0.14  
Year to date precipitation 2.78 3.90  
Sea Level Pressure  
Sea Level Pressure 29.73 in    
Wind  
Wind Speed 18 mph (SSE)    
Max Wind Speed 26 mph    
Max Gust Speed 33 mph    
Visibility 9 miles    
Events      
T = Trace of Precipitation, MM = Missing Value Source: NWS Daily Summary

Daily Weather History Graph

Daily Weather History Graph

Search for Another Location

Airport or City:

Trip Planner

Search our weather history database for the weather conditions in past years. The results will help you decide how hot, cold, wet, or windy it might be!

Date:

Astronomy

Apr. 03, 2014 Rise Set
Actual Time 7:19 AM CDT 7:48 PM CDT
Civil Twilight 6:56 AM CDT 8:11 PM CDT
Nautical Twilight 6:29 AM CDT 8:39 PM CDT
Astronomical Twilight 6:01 AM CDT 9:06 PM CDT
Moon 10:08 AM CDT (4/3) 11:49 PM CDT (4/3)
Length of Visible Light 13h 15m
Length of Day
12h 29m
Waxing Crescent, 17% of the Moon is Illuminated
Apr 3
Waxing Crescent
Apr 7
First Quarter
Apr 15
Full
Apr 22
Last Quarter
Apr 29
New

Hourly Weather History & Observations

Time (CDT) Temp. Heat Index Dew Point Humidity Pressure Visibility Wind Dir Wind Speed Gust Speed Precip Events Conditions
12:52 AM 75.9 °F - 71.1 °F 85% 29.79 in 10.0 mi South 17.3 mph 23.0 mph N/A   Mostly Cloudy
1:52 AM 75.2 °F - 71.6 °F 89% 29.78 in 10.0 mi South 17.3 mph 21.9 mph N/A   Mostly Cloudy
2:19 AM 75.2 °F - 69.8 °F 83% 29.78 in 10.0 mi SSE 19.6 mph 24.2 mph N/A   Scattered Clouds
2:52 AM 75.0 °F - 70.0 °F 84% 29.77 in 10.0 mi SSE 15.0 mph - N/A   Scattered Clouds
3:11 AM 75.2 °F - 69.8 °F 83% 29.76 in 10.0 mi SSE 18.4 mph - N/A   Mostly Cloudy
3:42 AM 73.4 °F - 69.8 °F 88% 29.74 in 8.0 mi SSE 18.4 mph 25.3 mph N/A   Scattered Clouds
3:52 AM 73.9 °F - 70.0 °F 87% 29.73 in 8.0 mi SSE 16.1 mph 24.2 mph N/A   Scattered Clouds
4:07 AM 73.4 °F - 69.8 °F 88% 29.73 in 8.0 mi SSE 17.3 mph - N/A   Mostly Cloudy
4:52 AM 73.9 °F - 70.0 °F 87% 29.73 in 8.0 mi SSE 18.4 mph 27.6 mph N/A   Mostly Cloudy
5:23 AM 73.4 °F - 69.8 °F 88% 29.73 in 8.0 mi SSE 17.3 mph 26.5 mph N/A   Overcast
5:52 AM 73.9 °F - 70.0 °F 87% 29.74 in 9.0 mi South 15.0 mph - N/A   Overcast
6:52 AM 73.9 °F - 70.0 °F 87% 29.74 in 8.0 mi SSE 16.1 mph 23.0 mph N/A   Overcast
7:52 AM 75.0 °F - 71.1 °F 87% 29.75 in 8.0 mi South 17.3 mph 26.5 mph N/A   Overcast
8:04 AM 75.2 °F - 71.6 °F 89% 29.76 in 8.0 mi South 18.4 mph 23.0 mph N/A   Overcast
8:52 AM 75.9 °F - 71.1 °F 85% 29.77 in 9.0 mi SSE 15.0 mph - N/A   Overcast
9:01 AM 75.2 °F - 71.6 °F 89% 29.77 in 9.0 mi SSE 16.1 mph - N/A   Overcast
9:52 AM 78.1 °F - 72.0 °F 81% 29.77 in 8.0 mi SSE 18.4 mph 25.3 mph N/A   Overcast
10:52 AM 79.0 °F - 72.0 °F 79% 29.76 in 9.0 mi SSE 19.6 mph - N/A   Overcast
11:52 AM 80.1 °F 83.8 °F 72.0 °F 76% 29.75 in 9.0 mi South 19.6 mph 27.6 mph N/A   Overcast
12:52 PM 84.9 °F 90.7 °F 72.0 °F 65% 29.73 in 10.0 mi South 23.0 mph 33.4 mph N/A   Overcast
1:52 PM 87.1 °F 94.5 °F 73.0 °F 63% 29.70 in 10.0 mi South 21.9 mph 28.8 mph N/A   Mostly Cloudy
2:52 PM 89.1 °F 97.0 °F 73.0 °F 59% 29.69 in 10.0 mi South 17.3 mph 25.3 mph N/A   Scattered Clouds
3:52 PM 90.0 °F 99.0 °F 73.9 °F 59% 29.65 in 10.0 mi South 18.4 mph 25.3 mph N/A   Partly Cloudy
4:52 PM 89.1 °F 98.0 °F 73.9 °F 61% 29.64 in 10.0 mi SSE 19.6 mph - N/A   Clear
5:52 PM 87.1 °F 94.5 °F 73.0 °F 63% 29.65 in 10.0 mi SSE 17.3 mph - N/A   Clear
6:52 PM 82.9 °F 88.8 °F 73.0 °F 72% 29.66 in 10.0 mi South 18.4 mph - N/A   Clear
7:52 PM 79.0 °F - 72.0 °F 79% 29.69 in 10.0 mi SSE 11.5 mph - N/A   Clear
8:52 PM 77.0 °F - 72.0 °F 84% 29.70 in 10.0 mi South 19.6 mph 25.3 mph N/A   Clear
9:13 PM 77.0 °F - 71.6 °F 83% 29.70 in 10.0 mi SSE 15.0 mph - N/A   Mostly Cloudy
10:52 PM 77.0 °F - 72.0 °F 84% 29.73 in 9.0 mi South 16.1 mph 25.3 mph N/A   Overcast
11:52 PM 77.0 °F - 71.1 °F 82% 29.74 in 9.0 mi South 17.3 mph 24.2 mph N/A   Overcast